Waarnemingen

Advertentie
Mijn weer
Eindhoven, Nederland (6370): temperatuur & dauwpunt: 22.06.2017 05:00:00 - 28.06.2017 05:00:00 (CEST)Eindhoven, Nederland (6370): temperatuur 5cm: 22.06.2017 05:00:00 - 28.06.2017 05:00:00 (CEST)Eindhoven, Nederland (6370): windsnelheid & windstoten: 22.06.2017 05:00:00 - 28.06.2017 05:00:00 (CEST)Eindhoven, Nederland (6370): windrichting: 22.06.2017 05:00:00 - 28.06.2017 05:00:00 (CEST)Eindhoven, Nederland (6370): luchtdruk: 22.06.2017 05:00:00 - 28.06.2017 05:00:00 (CEST)Eindhoven, Nederland (6370): zicht: 22.06.2017 05:00:00 - 28.06.2017 05:00:00 (CEST)Eindhoven, Nederland (6370): neerslag: 22.06.2017 05:00:00 - 28.06.2017 05:00:00 (CEST)
Datum & Tijd tt [°C] td [°C] tt 5cm [°C] ff [km/u] ff [kn] fx [km/u] fx [kn] dd ppp [hPa] vv [km] rr [mm]
28.06.2017 05:00:00 18,5 16,6 18,0 5 3 14 8 OZO 997,6 9 0,0
28.06.2017 04:00:00 18,2 16,3 17,4 8 4 14 8 O 998,1 10 0,0
28.06.2017 03:00:00 18,1 15,9 17,4 9 5 18 10 O 998,6 10 0,0
28.06.2017 02:00:00 18,7 15,8 18,3 13 7 22 12 ONO 999,4 10 0,0
28.06.2017 01:00:00 18,4 15,4 17,9 13 7 22 12 ONO 1000,6 10 0,0
28.06.2017 00:00:00 18,3 15,3 17,8 9 5 18 10 ONO 1001,3 10 0,0
27.06.2017 23:00:00 18,7 15,2 18,3 11 6 22 12 ONO 1002,0 10 0,0
27.06.2017 22:00:00 19,3 14,4 18,9 15 8 25 14 ONO 1002,6 10 0,0
27.06.2017 21:00:00 19,8 14,5 19,7 11 6 22 12 ONO 1003,1 10 0,0
27.06.2017 20:00:00 19,8 14,3 20,0 15 8 25 14 ONO 1003,8 10 0,0
27.06.2017 19:00:00 19,6 14,8 19,9 15 8 25 14 ONO 1004,5 10 0,0
27.06.2017 18:00:00 18,7 14,8 18,9 15 8 22 12 NO 1005,2 10 0,0
27.06.2017 17:00:00 18,3 15,2 18,1 11 6 22 12 ONO 1006,7 10 0,0
27.06.2017 16:00:00 18,7 14,3 19,0 13 7 22 12 ONO 1007,4 10 0,0
27.06.2017 15:00:00 19,3 13,8 19,6 13 7 22 12 ONO 1007,8 10 0,0
27.06.2017 14:00:00 19,4 13,6 19,4 15 8 22 12 ONO 1008,1 10 0,0
27.06.2017 13:00:00 19,7 12,1 20,5 13 7 22 12 O 1008,8 10 0,0
27.06.2017 12:00:00 19,4 11,7 20,5 13 7 18 10 ONO 1009,3 10 0,0
27.06.2017 11:00:00 18,0 11,0 19,0 13 7 18 10 NO 1009,8 10 0,0
27.06.2017 10:00:00 17,4 10,5 18,7 9 5 18 10 O 1010,2 10 0,0
27.06.2017 09:00:00 15,6 9,7 16,3 13 7 18 10 ONO 1010,4 10 0,0
27.06.2017 08:00:00 14,4 9,1 14,6 13 7 22 12 ONO 1010,5 10 0,0
27.06.2017 07:00:00 13,5 8,3 13,5 13 7 22 12 ONO 1010,8 10 0,0
27.06.2017 06:00:00 13,2 8,0 12,6 11 6 18 10 NO 1011,5 10 0,0
27.06.2017 05:00:00 13,6 8,1 12,9 13 7 22 12 ONO 1011,7 10 0,0
27.06.2017 04:00:00 14,0 8,7 13,1 13 7 22 12 ONO 1012,5 10 0,0
27.06.2017 03:00:00 14,5 9,0 13,8 16 9 25 14 NO 1012,6 10 0,0
27.06.2017 02:00:00 14,4 9,3 13,4 13 7 18 10 NNO 1012,8 10 0,0
27.06.2017 01:00:00 13,6 9,5 12,6 9 5 18 10 NNO 1013,2 10 0,0
27.06.2017 00:00:00 14,7 9,9 13,9 11 6 18 10 NNO 1013,3 10 0,0
26.06.2017 23:00:00 16,8 9,6 16,2 13 7 22 12 N 1013,3 10 0,0
26.06.2017 22:00:00 18,0 7,5 17,1 11 6 22 12 N 1012,8 10 0,0
26.06.2017 21:00:00 20,0 8,0 20,0 16 9 25 14 N 1012,4 10 0,0
26.06.2017 20:00:00 21,5 8,1 22,4 15 8 22 12 N 1012,8 10 0,0
26.06.2017 19:00:00 22,4 7,7 24,2 13 7 22 12 NNW 1012,8 10 0,0
26.06.2017 18:00:00 23,3 7,1 25,5 11 6 25 14 WNW 1013,0 10 0,0
26.06.2017 17:00:00 23,5 7,3 26,1 11 6 22 12 W 1013,4 10 0,0
26.06.2017 16:00:00 23,7 7,6 26,8 9 5 25 14 - 1013,6 10 0,0
26.06.2017 15:00:00 22,3 6,8 26,4 13 7 22 12 ZW 1014,0 10 0,0
26.06.2017 14:00:00 21,7 7,6 25,9 16 9 25 14 - 1014,1 10 0,0
26.06.2017 13:00:00 20,8 8,8 22,9 16 9 32 18 NW 1014,3 10 0,0
26.06.2017 12:00:00 20,3 9,3 24,0 15 8 29 16 WNW 1013,9 10 0,0
26.06.2017 11:00:00 19,3 10,5 20,9 15 8 29 16 W 1014,1 10 0,0
26.06.2017 10:00:00 18,6 11,3 20,0 15 8 22 12 WNW 1013,9 10 0,0
26.06.2017 09:00:00 16,9 11,5 17,5 13 7 18 10 NNW 1013,9 10 0,0
26.06.2017 08:00:00 16,1 13,3 15,9 9 5 14 8 NNW 1013,6 10 0,0
26.06.2017 07:00:00 16,0 14,8 15,8 9 5 14 8 WNW 1012,7 10 0,0
26.06.2017 06:00:00 15,8 14,5 15,5 8 4 14 8 WZW 1012,1 10 0,1
26.06.2017 05:00:00 15,7 14,4 15,4 11 6 14 8 ZZW 1012,0 10 0,0
26.06.2017 04:00:00 16,0 14,3 15,6 11 6 22 12 WZW 1012,1 10 0,1
26.06.2017 03:00:00 17,2 13,4 16,8 15 8 29 16 ZW 1012,1 10 0,0
26.06.2017 02:00:00 17,4 13,4 17,2 18 10 29 16 WZW 1011,9 10 0,0
26.06.2017 01:00:00 17,2 13,4 16,8 18 10 29 16 ZW 1011,8 10 0,0
26.06.2017 00:00:00 17,6 13,1 16,8 18 10 29 16 WZW 1012,1 10 0,0
25.06.2017 23:00:00 17,6 12,7 16,9 18 10 29 16 ZW 1012,0 10 0,0
25.06.2017 22:00:00 18,4 12,7 17,7 16 9 36 19 ZW 1012,0 10 0,0
25.06.2017 21:00:00 19,7 12,8 19,6 15 8 32 18 WZW 1011,8 10 0,0
25.06.2017 20:00:00 19,9 13,7 20,1 13 7 29 16 W 1011,9 10 0,0
25.06.2017 19:00:00 20,2 14,3 20,6 9 5 18 10 W 1012,0 10 0,0
25.06.2017 18:00:00 20,7 14,2 21,4 15 8 22 12 W 1012,1 10 0,0
25.06.2017 17:00:00 20,5 13,1 20,7 15 8 25 14 WZW 1012,2 10 0,0
25.06.2017 16:00:00 20,9 13,8 22,8 13 7 29 16 W 1012,7 10 0,0
25.06.2017 15:00:00 18,1 14,1 18,1 18 10 29 16 WZW 1013,0 10 0,0
25.06.2017 14:00:00 19,0 13,2 19,4 18 10 40 21 WZW 1013,0 10 0,0
25.06.2017 13:00:00 19,5 13,4 19,6 22 12 40 21 WZW 1012,3 10 0,0
25.06.2017 12:00:00 19,1 13,8 19,5 22 12 40 21 WZW 1012,2 10 0,0
25.06.2017 11:00:00 20,2 15,1 19,9 16 9 40 21 WZW 1011,7 10 0,0
25.06.2017 10:00:00 19,2 14,8 19,6 26 14 36 19 WZW 1011,4 10 0,1
25.06.2017 09:00:00 17,0 14,8 16,9 16 9 40 21 W 1011,3 9 0,0
25.06.2017 08:00:00 17,7 14,9 17,5 16 9 29 16 WZW 1011,0 10 0,0
25.06.2017 07:00:00 17,4 15,3 17,1 21 11 32 18 ZW 1011,0 10 0,0
25.06.2017 06:00:00 17,2 15,5 16,8 21 11 29 16 ZW 1011,0 10 0,0
25.06.2017 05:00:00 16,9 15,7 16,7 18 10 29 16 ZW 1011,1 10 0,0
25.06.2017 04:00:00 17,1 15,5 16,8 16 9 29 16 ZW 1011,4 10 0,0
25.06.2017 03:00:00 17,2 15,5 16,8 16 9 25 14 ZW 1011,7 10 0,0
25.06.2017 02:00:00 17,0 15,6 16,7 15 8 22 12 ZW 1012,2 10 0,0
25.06.2017 01:00:00 17,0 15,6 16,7 18 10 29 16 ZW 1012,6 10 0,0
25.06.2017 00:00:00 17,2 15,7 16,9 21 11 29 16 ZW 1013,1 10 0,0
24.06.2017 23:00:00 17,3 16,1 16,9 13 7 22 12 ZZW 1013,2 10 0,0
24.06.2017 22:00:00 17,2 16,4 17,0 13 7 22 12 ZZW 1013,3 10 0,2
24.06.2017 21:00:00 17,4 16,6 17,3 11 6 22 12 ZZW 1013,6 9 0,0
24.06.2017 20:00:00 17,5 16,6 17,5 15 8 25 14 ZZW 1013,9 10 0,2
24.06.2017 19:00:00 17,3 16,5 17,4 16 9 25 14 WZW 1014,4 3,1 0,8
24.06.2017 18:00:00 17,5 16,6 17,7 16 9 32 18 ZW 1014,8 4,0 0,1
24.06.2017 17:00:00 18,6 15,2 18,6 21 11 36 19 WZW 1015,0 10 0,0
24.06.2017 16:00:00 19,0 14,2 19,3 21 11 36 19 WZW 1015,2 10 0,0
24.06.2017 15:00:00 18,6 14,3 19,1 22 12 40 21 ZW 1015,4 10 0,0
24.06.2017 14:00:00 18,3 14,3 18,7 26 14 43 23 WZW 1015,5 10 0,0
24.06.2017 13:00:00 18,2 13,7 18,9 26 14 40 21 ZW 1015,3 10 0,0
24.06.2017 12:00:00 17,7 13,6 17,9 22 12 40 21 ZW 1015,5 10 0,0
24.06.2017 11:00:00 16,7 14,6 17,0 24 13 40 21 ZW 1015,4 6 0,0
24.06.2017 10:00:00 17,5 12,9 17,7 28 15 40 21 ZW 1015,2 10 0,0
24.06.2017 09:00:00 17,2 12,4 17,7 28 15 43 23 ZW 1015,2 10 0,0
24.06.2017 08:00:00 16,7 12,5 17,3 24 13 40 21 ZW 1014,9 10 0,0
24.06.2017 07:00:00 15,2 12,1 15,0 22 12 32 18 ZW 1015,1 10 0,0
24.06.2017 06:00:00 14,1 11,5 13,5 16 9 29 16 ZW 1015,3 10 0,0
24.06.2017 05:00:00 14,9 11,6 14,5 16 9 25 14 ZW 1015,5 10 0,0
24.06.2017 04:00:00 14,9 11,3 14,1 18 10 29 16 ZW 1016,0 10 0,0
24.06.2017 03:00:00 15,4 11,3 14,7 16 9 25 14 ZW 1016,2 10 0,0
24.06.2017 02:00:00 15,5 11,1 14,8 16 9 29 16 ZW 1016,4 10 0,0
24.06.2017 01:00:00 16,6 11,2 16,0 21 11 36 19 ZW 1016,8 10 0,0
24.06.2017 00:00:00 17,7 11,3 16,9 22 12 36 19 ZW 1016,8 10 0,0
23.06.2017 23:00:00 18,3 11,3 17,5 18 10 29 16 WZW 1016,9 10 0,0
23.06.2017 22:00:00 20,0 11,0 19,3 16 9 29 16 WZW 1016,4 10 0,0
23.06.2017 21:00:00 22,2 10,8 21,9 21 11 32 18 W 1015,9 10 0,0
23.06.2017 20:00:00 24,0 10,9 24,4 18 10 32 18 W 1015,7 10 0,0
23.06.2017 19:00:00 25,1 11,2 25,6 22 12 40 21 W 1015,3 10 0,0
23.06.2017 18:00:00 25,1 12,1 25,9 22 12 36 19 WZW 1015,3 10 0,0
23.06.2017 17:00:00 25,2 11,8 26,6 28 15 40 21 WZW 1015,4 10 0,0
23.06.2017 16:00:00 25,7 12,9 26,0 22 12 40 21 WZW 1015,4 10 0,0
23.06.2017 15:00:00 25,0 13,4 27,4 24 13 36 19 WZW 1015,7 10 0,0
23.06.2017 14:00:00 24,6 13,9 25,8 22 12 36 19 ZW 1015,7 10 0,0
23.06.2017 13:00:00 23,6 14,7 24,3 24 13 32 18 WZW 1016,0 10 0,0
23.06.2017 12:00:00 21,7 15,2 23,3 18 10 32 18 ZW 1016,0 10 0,0
23.06.2017 11:00:00 21,3 15,5 22,2 21 11 29 16 WZW 1015,7 10 0,0
23.06.2017 10:00:00 20,9 15,5 22,2 16 9 25 14 WZW 1015,4 10 0,0
23.06.2017 09:00:00 20,0 15,4 21,6 15 8 25 14 WZW 1014,8 10 0,0
23.06.2017 08:00:00 18,6 15,2 19,1 15 8 25 14 ZW 1014,6 10 0,0
23.06.2017 07:00:00 18,3 15,0 17,9 13 7 25 14 WZW 1014,3 10 0,0
23.06.2017 06:00:00 18,0 14,6 17,4 15 8 22 12 WZW 1013,6 10 0,0
23.06.2017 05:00:00 17,9 14,6 17,6 13 7 22 12 ZW 1013,5 10 0,0
23.06.2017 04:00:00 18,7 15,4 18,5 9 5 11 6 WZW 1013,6 10 0,0
23.06.2017 03:00:00 18,8 15,1 18,6 11 6 14 8 WZW 1013,7 10 0,0
23.06.2017 02:00:00 18,9 15,1 18,7 11 6 22 12 W 1013,6 10 0,0
23.06.2017 01:00:00 19,3 15,0 19,1 15 8 25 14 W 1013,5 10 0,0
23.06.2017 00:00:00 19,5 14,7 19,4 16 9 32 18 W 1013,1 10 0,0
22.06.2017 23:00:00 19,7 14,6 19,5 16 9 40 21 W 1012,6 10 0,0
22.06.2017 22:00:00 20,5 14,0 20,1 22 12 47 25 W 1011,9 10 0,0
22.06.2017 21:00:00 22,0 15,2 21,7 21 11 43 23 W 1011,1 10 0,0
22.06.2017 20:00:00 22,9 15,9 23,2 29 16 47 25 WNW 1010,6 10 0,0
22.06.2017 19:00:00 24,7 17,4 24,8 18 10 40 21 W 1009,8 10 0,0
22.06.2017 18:00:00 27,8 15,9 28,8 18 10 36 19 WNW 1009,1 10 0,0
22.06.2017 17:00:00 29,7 14,5 30,9 29 16 47 25 NW 1008,9 10 0,0
22.06.2017 16:00:00 34,1 16,9 34,7 31 17 50 27 WZW 1008,3 10 0,0
22.06.2017 15:00:00 34,0 15,3 34,2 34 18 50 27 WZW 1008,8 10 0,0
22.06.2017 14:00:00 33,7 15,7 36,3 28 15 36 19 ZW 1009,4 10 0,0
22.06.2017 13:00:00 33,7 14,7 35,6 24 13 36 19 WZW 1010,1 10 0,0
22.06.2017 12:00:00 31,9 15,7 33,6 22 12 36 19 WZW 1010,5 10 0,0
22.06.2017 11:00:00 31,5 16,9 33,2 18 10 29 16 W 1010,5 10 0,0
22.06.2017 10:00:00 29,2 17,6 30,5 22 12 32 18 ZW 1010,5 10 0,0
22.06.2017 09:00:00 28,0 17,1 28,5 18 10 29 16 ZZW 1010,6 10 0,0
22.06.2017 08:00:00 24,2 16,5 23,9 8 4 14 8 ZZW 1011,0 10 0,0
22.06.2017 07:00:00 22,5 15,7 22,3 9 5 14 8 Z 1011,1 10 0,0
22.06.2017 06:00:00 21,3 15,3 20,0 8 4 14 8 ZZO 1011,5 10 0,0
22.06.2017 05:00:00 21,4 15,1 20,1 11 6 14 8 ZZO 1011,7 10 0,0

tt = temperatuur
td = dauwpunt
tt 5cm = temperatuur 5cm
ff = windsnelheid
fx = windstoten
dd = windrichting
ppp = luchtdruk
vv = zicht
rr = neerslag

Weerstations in de omgeving